Regional Weather Roundup
Issued by NWS

Home | Current Version | Previous Version | Text Only | Print | Product List | Glossary Off
Versions: 1 2 3 4 5 6 7 8 9 10 11 12 13 14 15 16 17 18 19 20 21 22 23 24 25 26 27 28 29 30 31 32 33 34 35 36 37 38 39 40 41 42 43 44 45 46 47 48 49 50

000
ASUS45 KBOU 270307
RWRCO

WEATHER ROUNDUP FOR COLORADO
NATIONAL WEATHER SERVICE DENVER/BOULDER CO
900 PM MDT THU MAR 26 2015

NOTE: "FAIR" INDICATES FEW OR NO CLOUDS BELOW 12000 FEET WITH NO
SIGNIFICANT WEATHER AND/OR OBSTRUCTIONS TO VISIBILITY.

COZ001>005-013-030-031-270400-
...NORTHWEST COLORADO...

CITY           SKY/WX    TMP DP  RH WIND       PRES   REMARKS
CRAIG          CLOUDY    43  27  53 SW3       30.27R
HAYDEN         CLOUDY    45  21  39 SW3       30.27R
MEEKER         CLEAR     42  27  55 N5        30.29R
MOUNT WERNER   NOT AVBL
STEAMBOAT SPGS CLOUDY    42  27  55 SE5       30.28R
WALDEN         CLOUDY    36  27  69 S6        30.28R
$$

COZ006>008-011-270400-
...WEST CENTRAL VALLEYS...

CITY           SKY/WX    TMP DP  RH WIND       PRES   REMARKS
GRAND JUNCTION PTCLDY    51  17  26 N9        30.25R
MONTROSE       MOCLDY    48  23  37 S9        30.31R
EAGLE          CLOUDY    48  25  40 CALM      30.30R
RIFLE          CLEAR     54  20  26 W15       30.25R
DELTA          MOCLDY    55  20  25 CALM      30.27R
NUCLA          MOCLDY    50  16  25 W6        30.33R
$$

COZ017>023-064>068-270400-
...SOUTHWEST COLORADO...

CITY           SKY/WX    TMP DP  RH WIND       PRES   REMARKS
DURANGO        CLEAR     45  20  36 N7        30.26R
CORTEZ         CLEAR     48  16  27 S5        30.28R
PAGOSA SPRINGS CLEAR     41  19  41 CALM      30.31R
TELLURIDE      NOT AVBL
WOLF CREEK PAS PTCLDY    30  12  47 SW7       30.48R WCI  23
$$

COZ009-010-012-014-032>034-037-058>063-270400-
...CENTRAL COLORADO...

CITY           SKY/WX    TMP DP  RH WIND       PRES   REMARKS
ASPEN          PTCLDY    38  24  57 SW6       30.33R
BUENA VISTA    MOCLDY    45  19  36 N6        30.28R
COPPER MTN     CLOUDY    30  19  64 W22G28    30.41R WCI  17
BERTHOUD PASS  LGT SNOW  21  14  73 NW37G52   30.36R WCI   1
COTTONWOOD PAS MOCLDY    43  14  31 NW10G22   30.33S
GUNNISON       CLEAR     43  18  36 SW9       30.35R
KREMMLING      CLOUDY    39  25  56 CALM      30.31R
LEADVILLE      MOCLDY    33  18  53 VRB7      30.36R WCI  27
SALIDA         MOCLDY    50  20  29 W13       30.34R
SUNLIGHT       PTCLDY    32  21  64 SW3       30.45R
WILKERSON PASS CLOUDY    30  19  64 NW16G29   30.37R WCI  19
$$

COZ069>075-270400-
...SAN LUIS VALLEY/SANGRE DE CRISTO MOUNTAINS...

CITY           SKY/WX    TMP DP  RH WIND       PRES   REMARKS
ALAMOSA        MOCLDY    50  15  24 N15       30.25R
LA VETA PASS   MOCLDY    36  14  41 W3        30.33S
SAGUACHE       MOCLDY    45  18  33 N20       30.29R
$$

COZ035-036-038>040-270400-
...NORTHERN COLORADO FRONT RANGE...

CITY           SKY/WX    TMP DP  RH WIND       PRES   REMARKS
DENVER INTL AP CLOUDY    52  31  44 NE7       30.16R
DMNS CITY PARK   N/A     55  23  29 W6G14     30.15S
AURORA         MOCLDY    53  26  35 W9        30.17R
FRONT RANGE AP NOT AVBL
ERIE MUNI ARPT CLOUDY    55  25  31 W6        30.14S
BOULDER MUN AP CLOUDY    55  27  33 W13G24    30.14S
CENTENNIAL     CLOUDY    53  24  32 NW12      30.17R
BROOMFIELD     MOCLDY    54  25  32 W12       30.16S
FORT COLLINS   MOCLDY    52  27  37 E15       30.15R
LONGMONT       CLOUDY    54  29  38 CALM      30.15S
$$

COZ041-046-047-076>085-087-088-270400-
...PIKES PEAK/PALMER DIVIDE AND SOUTHERN FOOTHILLS...

CITY           SKY/WX    TMP DP  RH WIND       PRES   REMARKS
COLO. SPRINGS  MOCLDY    47  22  37 NE5       30.21R
A. F. ACADEMY  MOCLDY    44  28  52 NE6       30.21R
ELLICOTT       MOCLDY   N/A N/A N/A S12       30.20R
FALCON         MOCLDY    41  23  48 SW3       30.23S
FORT CARSON    MOCLDY    46  26  46 SW7       30.19R
LIMON          CLOUDY    42  28  57 CALM      30.18R
MONUMENT HILL  MOCLDY    37  27  65 S3        30.21S
TRINIDAD       MOCLDY    46  26  45 CALM      30.20R
$$

COZ042>045-048>051-090-091-270400-
...NORTHEAST COLORADO...

CITY           SKY/WX    TMP DP  RH WIND       PRES   REMARKS
GREELEY ARPT   CLOUDY    52  27  37 E6        30.14R
AKRON          CLOUDY    47  29  49 NE3       30.16R
BURLINGTON     CLOUDY    50  32  50 N18       30.18R
WRAY           MOCLDY    48  32  53 N6        30.15R
STERLING       CLOUDY    45  32  61 N6        30.15R
HOLYOKE        PTCLDY    46  32  57 N6        30.14S
FORT MORGAN    CLOUDY    47  28  49 E7        30.17R
$$

COZ086-089-092>099-270400-
...SOUTHEAST COLORADO...

CITY           SKY/WX    TMP DP  RH WIND       PRES   REMARKS
PUEBLO         MOCLDY    46  31  55 CALM      30.17R
LA JUNTA       MOCLDY    55  21  26 CALM      30.17R
LAMAR          PTCLDY    42  27  55 CALM      30.14R
SPRINGFIELD      N/A     38  26  62 W8        30.17R
$$



USA.gov is the U.S. government's official web portal to all federal, state and local government web resources and services.